CZ-3C DEB, 39350

Orbit data source: Space-Track

CZ-3C DEB, 39350 is space debris in HEO originally from a launch on Sun, 31 Oct 2010 UTC launched from the Xichang Space Center, China (XSC). Debris objects in space refer to the collection of defunct objects orbiting the Earth. Examples of debris include non-operational satellites, rocket bodies, and fragments generated from explosions, collisions, or faulty payload assembly.

Not visible in the next 10 days
Identifier
39350, 2010-057Q
Orbit
HEO
Country
Flag of CNCN / PRC
Related business
Manufacturer
CALT
Mission
Spacecraft
Bus & Motor
Unknown
Mass
Unknown
Launch date (UTC)
2010-10-31 (15 years ago)
Launch vehicle
Unknown
Launch site
Xichang Space Center, China (XSC)
Object type
Payload
Rocket body
Debris
Shape & HBR
Unknown shape, 0.3 m
Radar Cross Section
Medium (>0.1 m² and <1 m²)

Expand to show TLE details & history
Last TLE update: 13 hours ago

TLE from 13 hours ago
0 CZ-3C DEB
1 39350U 10057Q   25346.81895969  .00000202  00000-0  19078-2 0  9999
2 39350  19.8009 109.7818 7229939 148.1467 300.3888  2.22900290 95814
Epoch: 2025-12-12T19:39Z
TLE epoch observation values (Epoch: 2025-12-12T19:39:18.117Z)
Latitude
1.71293°
Longitude
97.91239°
Altitude
21,610.114 km
Speed
3.519 km/s
True Right ascension
07h 37m 58s
True Declination
1° 42' 37"
Sunlit
Object was in daylight at epoch
Visualization orbit readout
Latitude
Unknown
Longitude
Unknown
Altitude
Unknown
Speed
Unknown
Apparent Right ascension
Unknown
Apparent Declination
Unknown
Sunlit
N/A
Visualization observer readout
Local Sidereal Time
07:32:40
Azimuth
Unknown
Elevation
Unknown
Doppler factor
Unknown
Orbital elements
Apogee altitude
36,282.152 km
Perigee altitude
480.367 km
Semi-major axis
24,759.396 km
Eccentricity
0.72299
Inclination
19.8009°
RAAN
109.7818°
Arg. of periapsis
148.1467°
True anomaly
216.96996°
Mean anomaly
300.3888°
Eccentric anomaly
259.63968°
Mean motion
0.5571 °/min
Orbital period
646.2 mins
BSTAR
0.0019078
Loading maneuver chart data...
Computing Atmospheric mass density...
Loading historical data...
Loading historical data...
Loading historical data...
Loading historical data...
Loading historical data...
Loading historical data...
Loading historical data...

Documentation

Showing up to 5 results
|